• In Italy
  • List of Countries
  • For 7 days
  • Water Temperature
  • Satellite Maps
  • Weather Map
  • Weather Widgets
  • user-avatar
    Login

    Hourly Weather Gold Coast

    Today, 20 September, Wednesday

    Time Temperature Precipitation Wind Pressure Humidity
    00:00 +18°C° 0 mm 4 mps 758 mmHg 73%
    01:00 +18°C° 0 mm 4 mps 758 mmHg 69%
    02:00 +17°C° 0 mm 4 mps 758 mmHg 66%
    03:00 +17°C° 0 mm 4 mps 759 mmHg 62%
    04:00 +15°C° 0 mm 5 mps 758 mmHg 60%
    05:00 +16°C° 0 mm 5 mps 759 mmHg 61%
    06:00 +17°C° 0 mm 5 mps 759 mmHg 63%
    07:00 +17°C° 0 mm 5 mps 760 mmHg 64%
    08:00 +21°C° 0 mm 5 mps 760 mmHg 57%
    09:00 +23°C° 0 mm 5 mps 760 mmHg 50%
    10:00 +26°C° 0 mm 5 mps 760 mmHg 42%
    11:00 +27°C° 0 mm 5 mps 759 mmHg 39%
    12:00 +28°C° 0 mm 5 mps 759 mmHg 36%
    13:00 +29°C° 0 mm 5 mps 758 mmHg 32%
    14:00 +28°C° 0 mm 5 mps 758 mmHg 38%
    15:00 +26°C° 0 mm 6 mps 758 mmHg 43%
    16:00 +24°C° 0 mm 6 mps 758 mmHg 49%
    17:00 +22°C° 0 mm 5 mps 758 mmHg 59%
    18:00 +20°C° 0 mm 5 mps 759 mmHg 69%
    19:00 +18°C° 0 mm 4 mps 759 mmHg 79%
    20:00 +17°C° 0 mm 3 mps 760 mmHg 82%
    21:00 +16°C° 0 mm 3 mps 760 mmHg 85%
    22:00 +16°C° 0 mm 2 mps 760 mmHg 88%
    23:00 +16°C° 0 mm 2 mps 760 mmHg 86%

    Tomorrow, 21 September, Thursday

    Time Temperature Precipitation Wind Pressure Humidity
    00:00 +18°C° 0 mm 1 mps 760 mmHg 83%
    01:00 +18°C° 0 mm 1 mps 760 mmHg 81%
    02:00 +18°C° 0 mm 1 mps 760 mmHg 84%
    03:00 +16°C° 0 mm 1 mps 760 mmHg 87%
    04:00 +16°C° 0 mm 1 mps 760 mmHg 90%
    05:00 +16°C° 0 mm 1 mps 760 mmHg 86%
    06:00 +18°C° 0 mm 1 mps 761 mmHg 83%
    07:00 +19°C° 0 mm 1 mps 761 mmHg 79%
    08:00 +21°C° 0 mm 1 mps 761 mmHg 69%
    09:00 +23°C° 0 mm 2 mps 761 mmHg 58%
    10:00 +25°C° 0 mm 2 mps 761 mmHg 47%
    11:00 +26°C° 0 mm 3 mps 760 mmHg 45%
    12:00 +27°C° 0 mm 3 mps 760 mmHg 42%
    13:00 +28°C° 0 mm 4 mps 759 mmHg 39%
    14:00 +28°C° 0 mm 4 mps 758 mmHg 42%
    15:00 +27°C° 0 mm 5 mps 758 mmHg 45%
    16:00 +26°C° 0 mm 5 mps 758 mmHg 48%
    17:00 +23°C° 0 mm 5 mps 758 mmHg 60%
    18:00 +21°C° 0 mm 5 mps 759 mmHg 71%
    19:00 +19°C° 0 mm 4 mps 759 mmHg 83%
    20:00 +19°C° 0 mm 4 mps 759 mmHg 86%
    21:00 +18°C° 0 mm 4 mps 760 mmHg 88%
    22:00 +18°C° 0 mm 4 mps 760 mmHg 91%
    23:00 +18°C° 0 mm 4 mps 760 mmHg 91%

    Day after tomorrow, 22 September, Friday

    Time Temperature Precipitation Wind Pressure Humidity
    00:00 +18°C° 0 mm 4 mps 760 mmHg 91%
    01:00 +19°C° 0 mm 4 mps 760 mmHg 91%
    02:00 +19°C° 0 mm 4 mps 760 mmHg 92%
    03:00 +19°C° 0 mm 3 mps 759 mmHg 92%
    04:00 +19°C° 0 mm 3 mps 759 mmHg 93%
    05:00 +20°C° 0.1 mm 4 mps 760 mmHg 91%
    06:00 +20°C° 0.1 mm 4 mps 760 mmHg 88%
    07:00 +21°C° 0.1 mm 4 mps 761 mmHg 86%
    08:00 +23°C° 0 mm 4 mps 760 mmHg 75%
    09:00 +26°C° 0 mm 5 mps 760 mmHg 64%
    10:00 +27°C° 0 mm 5 mps 760 mmHg 53%
    11:00 +29°C° 0 mm 5 mps 759 mmHg 48%
    12:00 +30°C° 0 mm 5 mps 759 mmHg 42%
    13:00 +32°C° 0 mm 5 mps 758 mmHg 37%
    14:00 +30°C° 0 mm 6 mps 758 mmHg 40%
    15:00 +29°C° 0 mm 6 mps 757 mmHg 44%
    16:00 +28°C° 0 mm 6 mps 757 mmHg 47%
    17:00 +26°C° 0.1 mm 6 mps 757 mmHg 57%
    18:00 +23°C° 0.1 mm 5 mps 758 mmHg 67%
    19:00 +21°C° 0.1 mm 5 mps 758 mmHg 77%
    20:00 +21°C° 0.6 mm 5 mps 758 mmHg 81%
    21:00 +21°C° 0.6 mm 6 mps 759 mmHg 84%
    22:00 +21°C° 0.6 mm 6 mps 759 mmHg 88%
    23:00 +20°C° 0 mm 6 mps 759 mmHg 88%

    23 September, Saturday

    Time Temperature Precipitation Wind Pressure Humidity
    00:00 +20°C° 0 mm 6 mps 758 mmHg 88%
    01:00 +20°C° 0 mm 6 mps 758 mmHg 89%
    02:00 +20°C° 0 mm 6 mps 758 mmHg 89%
    03:00 +19°C° 0 mm 6 mps 758 mmHg 90%
    04:00 +19°C° 0 mm 6 mps 758 mmHg 90%
    05:00 +19°C° 0 mm 6 mps 758 mmHg 88%
    06:00 +20°C° 0 mm 6 mps 758 mmHg 85%
    07:00 +20°C° 0 mm 6 mps 759 mmHg 83%
    08:00 +22°C° 0 mm 6 mps 758 mmHg 73%
    09:00 +24°C° 0 mm 6 mps 758 mmHg 62%
    10:00 +27°C° 0 mm 7 mps 758 mmHg 52%
    11:00 +29°C° 0 mm 7 mps 757 mmHg 46%
    12:00 +32°C° 0 mm 7 mps 756 mmHg 39%
    13:00 +34°C° 0 mm 7 mps 755 mmHg 33%
    14:00 +33°C° 0 mm 7 mps 755 mmHg 37%
    15:00 +32°C° 0 mm 8 mps 755 mmHg 42%
    16:00 +31°C° 0 mm 8 mps 754 mmHg 46%
    17:00 +28°C° 0 mm 8 mps 755 mmHg 55%
    18:00 +26°C° 0 mm 8 mps 755 mmHg 64%
    19:00 +24°C° 0 mm 8 mps 755 mmHg 74%
    20:00 +23°C° 0 mm 7 mps 756 mmHg 73%
    21:00 +23°C° 0 mm 7 mps 756 mmHg 72%
    22:00 +22°C° 0 mm 7 mps 756 mmHg 71%
    23:00 +22°C° 0 mm 7 mps 755 mmHg 70%

    24 September, Sunday

    Time Temperature Precipitation Wind Pressure Humidity
    00:00 +22°C° 0 mm 7 mps 755 mmHg 68%
    01:00 +22°C° 0 mm 7 mps 755 mmHg 66%
    02:00 +22°C° 0 mm 6 mps 755 mmHg 65%
    03:00 +21°C° 0 mm 6 mps 755 mmHg 64%
    04:00 +21°C° 0 mm 6 mps 755 mmHg 63%
    05:00 +22°C° 0 mm 6 mps 755 mmHg 60%
    06:00 +22°C° 0 mm 6 mps 755 mmHg 56%
    07:00 +23°C° 0 mm 6 mps 756 mmHg 52%
    08:00 +27°C° 0 mm 6 mps 755 mmHg 42%
    09:00 +30°C° 0 mm 7 mps 755 mmHg 33%
    10:00 +34°C° 0 mm 7 mps 755 mmHg 23%
    11:00 +36°C° 0 mm 7 mps 754 mmHg 21%
    12:00 +38°C° 0 mm 8 mps 754 mmHg 19%
    13:00 +40°C° 0 mm 8 mps 753 mmHg 17%
    14:00 +39°C° 0 mm 8 mps 753 mmHg 18%
    15:00 +39°C° 0 mm 8 mps 753 mmHg 20%
    16:00 +38°C° 0 mm 8 mps 753 mmHg 22%
    17:00 +34°C° 0 mm 7 mps 753 mmHg 29%
    18:00 +32°C° 0 mm 7 mps 754 mmHg 35%
    19:00 +28°C° 0 mm 6 mps 755 mmHg 42%
    20:00 +27°C° 0 mm 6 mps 755 mmHg 44%
    21:00 +27°C° 0 mm 6 mps 755 mmHg 45%
    22:00 +26°C° 0 mm 6 mps 755 mmHg 47%
    23:00 +26°C° 0 mm 6 mps 755 mmHg 49%

    25 September, Monday

    Time Temperature Precipitation Wind Pressure Humidity
    00:00 +24°C° 0 mm 7 mps 754 mmHg 51%
    01:00 +24°C° 0 mm 7 mps 754 mmHg 54%
    02:00 +23°C° 0 mm 7 mps 754 mmHg 56%
    03:00 +23°C° 0 mm 7 mps 754 mmHg 58%
    04:00 +22°C° 0 mm 6 mps 754 mmHg 60%
    05:00 +23°C° 0 mm 6 mps 754 mmHg 56%
    06:00 +24°C° 0 mm 6 mps 755 mmHg 52%
    07:00 +26°C° 0 mm 6 mps 756 mmHg 48%
    08:00 +28°C° 0 mm 5 mps 756 mmHg 41%
    09:00 +30°C° 0 mm 5 mps 756 mmHg 33%
    10:00 +33°C° 0 mm 5 mps 756 mmHg 26%
    11:00 +35°C° 0 mm 6 mps 755 mmHg 23%
    12:00 +38°C° 0 mm 7 mps 754 mmHg 20%
    13:00 +40°C° 0 mm 7 mps 754 mmHg 17%
    14:00 +39°C° 0 mm 8 mps 753 mmHg 19%
    15:00 +38°C° 0 mm 8 mps 753 mmHg 21%
    16:00 +38°C° 0 mm 8 mps 752 mmHg 24%
    17:00 +34°C° 0 mm 8 mps 753 mmHg 30%
    18:00 +32°C° 0 mm 7 mps 754 mmHg 36%
    19:00 +29°C° 0 mm 6 mps 755 mmHg 41%
    20:00 +28°C° 0 mm 5 mps 755 mmHg 45%
    21:00 +27°C° 0 mm 4 mps 756 mmHg 49%
    22:00 +26°C° 0 mm 2 mps 756 mmHg 53%
    23:00 +25°C° 0 mm 2 mps 756 mmHg 56%
    Show more